Temp_Advection
nan nan nan nan nan nan nan nan nan nan nan nan nan nan nan nan nan nan nan nan nan nan nan nan nan nan nan nan nan nan nan nan nan nan nan nan nan nan nan nan nan nan nan nan nan
nan 0 -0 0 -0 -0 -0 -0 -0 -0 -0 -0 -0 -0 -0 -0 -0 -0 -0 -0 0 -0 -0 -0 -0 0 -0 -0 0 -0 -0 0 -0 -0 0 0 0 -0 -0 -0 0 0 0 -0 nan
nan -0 0 0 -0 0 -0 -0 -0 -0 -0 -0 -0 -0 -0 -0 -0 -0 -0 -0 0 -0 -0 -0 -0 -0 -0 -0 0 0 -0 0 0 0 0 -0 0 -0 -0 0 -0 -0 0 0 nan
nan -0 -0 0 0 -0 -0 -0 -0 -0 -0 -0 -0 -0 -0 -0 -0 0 0 0 0 0 -0 -0 0 0 -0 0 0 -0 0 0 0 0 -0 -0 -0 -0 -0 0 0 -0 -0 -0 nan
nan 0 -0 0 0 -0 0 -0 -0 -0 0 -0 -0 -0 -0 -0 -0 0 0 0 0 0 0 0 -0 0 0 0 -0 -0 0 0 0 0 0 -0 -0 -0 0 -0 -0 -0 -0 -0 nan
nan 0 0 0 0 -0 -0 -0 -0 -0 0 -0 -0 -0 -0 -0 -0 0 0 0 0 0 0 0 0 0 0 0 0 0 -0 0 0 0 -0 -0 0 0 0 -0 0 -0 -0 -0 nan
nan 0 0 0 -0 -0 -0 0 -0 0 0 0 -0 -0 -0 -0 -0 0 0 0 0 0 0 0 0 0 0 0 0 -0 -0 0 -0 0 0 0 -0 -0 -0 0 0 -0 -0 -0 nan
nan -0 0 0 -0 -0 0 -0 -0 0 0 -0 -0 -0 -0 -0 -0 0 0 0 0 0 0 0 0 0 0 -0 -0 -0 -0 -0 -0 0 -0 -0 -0 -0 -0 0 -0 -0 -0 -0 nan
nan 0 0 0 -0 -0 0 0 0 0 -0 0 0 -0 -0 -0 -0 0 0 0 0 0 0 0 0 -0 -0 -0 -0 -0 -0 0 0 -0 -0 -0 -0 -0 0 -0 -0 -0 -0 -0 nan
nan 0 0 -0 -0 -0 0 1 0 0 0 -0 -0 -0 -1 -0 0 0 0 0 0 0 -0 0 -0 -0 -0 -0 -0 0 0 0 -0 -0 0 -0 -0 0 0 -0 0 -0 -0 -0 nan
nan 0 0 -0 0 0 1 0 -0 -0 -1 -1 -0 -0 -0 0 0 0 0 -0 0 -0 0 -0 -0 -0 0 0 0 0 -0 -0 0 -0 -0 -0 -0 -0 0 0 0 -0 -0 -1 nan
nan 0 0 0 0 1 0 -0 -1 -0 -0 -0 0 0 -0 0 -0 0 0 0 -0 0 0 -0 -0 0 0 0 0 0 -0 -0 0 0 -0 -0 0 -0 -0 0 0 0 -0 -0 nan
nan 0 0 0 1 0 -0 -1 -0 -0 -0 -0 0 -0 -0 -0 -0 0 0 0 0 0 -0 -0 -0 0 0 0 -0 -0 -0 0 0 0 -0 -0 -0 -0 -0 -0 -0 0 0 0 nan
nan 0 0 0 -0 -0 -1 -0 0 -0 -0 0 0 0 0 -0 0 0 0 0 0 0 0 0 -0 -0 -0 -0 -0 -0 0 0 0 -0 0 -0 -0 -0 -0 -0 -0 -0 -0 -0 nan
nan 0 0 0 -0 -0 -1 -0 -0 -0 -0 0 -0 0 0 0 -0 0 0 0 0 0 0 -0 0 -0 -0 0 0 -0 -0 0 -0 -0 -0 -0 -0 -0 0 -0 -1 -0 -0 -0 nan
nan 0 0 -0 -0 -0 -0 0 -0 -0 0 0 0 -0 -0 0 -0 -0 0 0 0 0 -0 0 0 -0 0 -0 0 0 -0 -0 -0 -0 -0 0 -0 -0 -0 -0 -0 -0 -0 -0 nan
nan 0 -0 -0 -0 0 0 0 -0 -0 -0 0 0 0 0 -0 -0 -0 -0 -0 -0 -0 -0 0 -0 0 0 -0 -0 -0 -0 -0 -0 -0 0 -0 -0 -0 0 0 1 -0 -0 -0 nan
nan 0 0 0 -0 0 1 -0 -0 -0 0 -0 0 0 0 0 -0 0 0 -0 -0 -0 -0 -0 0 0 0 -0 -0 0 -0 -0 0 -0 -0 -0 -1 -0 0 0 0 0 1 0 nan
nan 1 0 -0 0 0 -0 -0 -0 0 0 -0 -0 -0 -0 0 -0 -0 -0 -0 -0 0 -0 -0 -0 -0 -0 0 0 0 0 -0 -0 0 -0 -0 0 0 0 0 -0 1 0 0 nan
nan 0 -1 0 0 0 -0 -0 0 0 0 -0 -0 0 -0 -0 -0 -0 -0 0 0 1 -0 0 -0 -0 -0 -0 0 -0 0 0 -0 -0 -0 0 -0 0 -0 -0 -0 -0 -0 0 nan
nan -0 0 0 0 -0 -0 0 0 0 0 -0 0 0 -0 0 -0 -0 -0 0 0 0 -0 0 0 -0 -0 -0 0 0 -0 -0 -0 -0 -0 -0 -0 0 -0 -1 -0 -0 0 0 nan
nan 0 1 1 -0 0 0 0 0 -0 -0 -0 0 0 0 -0 0 -0 0 0 0 0 -0 0 0 -0 -0 -0 -0 -0 -0 -0 0 0 0 -0 -0 0 0 0 0 0 0 0 nan
nan -0 1 2 0 0 0 0 -0 0 -0 0 0 0 0 0 0 0 0 -0 0 0 0 0 0 -0 -0 -0 -0 -0 0 0 0 -0 -0 -0 0 -0 0 0 1 1 0 0 nan
nan -0 -0 0 -0 -0 -1 0 -0 -0 0 0 0 0 -0 -0 0 0 0 -0 0 0 0 0 0 -0 -0 -0 -0 -0 -0 0 -0 -0 -0 -1 -0 0 -0 0 0 1 0 0 nan
nan 0 -0 -0 -0 0 0 0 -0 -0 0 -0 0 -0 0 -0 -0 -0 -0 -0 -0 0 0 -0 -0 0 0 0 0 -0 0 -0 -0 -1 -0 -1 -0 0 0 1 1 1 0 0 nan
nan 0 -0 0 -0 -0 0 -0 0 0 0 -0 -0 0 0 0 -0 0 0 -0 -0 -0 -0 0 0 0 0 0 0 -0 -0 -0 -0 -0 0 0 -1 -1 1 0 1 1 0 0 nan
nan nan nan nan nan nan nan nan nan nan nan nan nan nan nan nan nan nan nan nan nan nan nan nan nan nan nan nan nan nan nan nan nan nan nan nan nan nan nan nan nan nan nan nan nan
Wind_Speed
13 13 9 11 11 8 9 9 7 8 8 6 5 4 4 4 5 6 5 4 4 5 5 5 3 2 3 2 2 2 4 5 6 5 2 4 4 4 6 9 7 7 10 10 15
16 15 13 13 11 9 9 9 8 8 8 6 5 4 4 5 5 9 6 6 5 5 5 3 3 2 2 2 1 3 4 3 2 4 4 6 7 8 6 9 12 9 6 11 12
14 18 14 15 13 11 10 8 9 8 10 7 5 5 4 4 4 6 11 8 6 5 4 3 3 2 2 2 2 2 4 2 4 8 8 7 8 3 7 7 2 10 12 8 10
13 18 17 15 12 11 10 8 10 10 10 8 6 5 4 4 5 8 12 11 7 6 4 3 2 1 1 2 2 5 6 6 3 3 4 6 4 8 9 7 11 7 9 13 12
16 18 17 12 11 12 10 8 9 10 10 8 6 6 4 5 6 4 10 14 10 7 5 2 1 1 1 1 3 7 5 4 7 9 9 9 11 9 6 3 7 6 6 7 7
21 16 15 13 11 11 11 11 9 11 10 8 7 6 4 8 7 6 7 14 12 9 5 2 2 2 1 3 5 1 5 10 8 9 6 4 2 2 2 6 4 6 9 9 8
21 16 15 14 12 12 12 11 10 12 10 9 8 7 8 10 7 9 11 12 9 9 5 4 3 3 4 2 1 4 8 6 4 0 1 3 5 6 3 4 6 9 11 12 13
18 17 15 14 9 11 10 11 10 12 11 10 8 7 7 9 12 10 13 11 10 8 5 4 3 4 2 2 1 4 4 4 4 2 1 2 2 7 4 5 5 8 10 13 16
18 16 17 15 9 14 15 13 13 13 12 10 8 6 6 9 13 15 13 11 10 7 5 4 4 3 3 4 4 3 4 4 2 2 1 3 6 2 4 4 5 6 8 11 16
19 19 18 14 13 16 15 14 13 12 11 8 8 5 14 9 14 16 16 13 9 9 5 3 2 5 4 5 4 2 4 3 6 2 4 9 12 5 7 8 11 8 8 11 16
18 18 16 15 15 18 16 12 7 7 16 13 8 7 1 10 12 13 17 16 10 7 7 2 6 8 5 6 3 2 4 9 5 1 3 3 9 7 1 16 14 10 10 12 16
18 17 16 16 16 19 21 18 18 4 7 26 21 17 3 10 6 11 17 12 10 10 7 4 11 6 1 5 6 5 5 10 5 2 3 3 6 3 9 10 11 11 11 13 15
19 18 18 19 19 23 25 26 9 10 6 6 25 17 12 12 7 15 18 10 8 9 11 11 2 6 5 7 8 7 9 7 7 1 3 5 4 7 6 7 7 7 9 11 13
21 20 21 22 20 23 26 22 11 5 4 7 8 8 15 13 7 10 17 7 4 10 7 7 2 6 6 7 9 9 4 5 4 4 3 2 1 10 12 10 9 10 11 11 12
23 22 23 24 11 23 17 16 14 6 5 6 5 5 11 14 9 7 20 8 9 9 6 3 7 6 5 2 9 3 5 2 3 6 4 5 5 9 12 13 14 14 13 12 12
24 23 25 27 14 16 14 17 13 4 7 4 4 6 10 5 3 5 7 5 4 5 2 4 1 3 1 4 3 10 3 2 2 4 5 3 4 8 12 18 16 16 15 14 13
25 26 27 25 16 15 18 23 5 6 2 5 4 6 11 7 5 6 11 11 9 7 12 6 11 3 3 5 5 5 4 3 4 4 1 2 4 4 10 7 18 20 19 16 14
26 27 28 25 15 18 27 7 7 4 5 3 3 7 8 8 4 4 9 10 8 6 3 9 6 9 6 6 1 9 4 4 4 2 1 2 5 2 3 3 6 16 18 15 13
26 26 27 26 19 24 20 10 7 4 4 8 4 4 6 4 3 6 9 8 10 13 7 6 3 2 1 2 1 6 6 2 1 0 3 1 3 5 4 5 10 15 15 14 12
28 25 26 27 19 23 10 9 3 2 4 3 6 5 10 10 8 10 11 5 5 14 5 4 4 1 3 3 5 2 5 2 3 3 4 3 5 5 9 10 13 15 15 12 11
26 13 18 25 20 13 11 9 4 6 5 5 6 4 4 6 9 8 6 3 4 7 8 5 2 4 3 7 8 4 4 2 2 3 3 4 3 5 11 16 18 19 15 13 13
22 5 21 30 13 9 12 8 5 5 6 3 2 2 7 9 8 7 7 3 6 13 8 4 1 4 2 3 2 2 4 9 5 5 2 3 7 4 8 20 22 19 15 15 14
17 6 23 34 10 7 2 6 4 4 5 5 5 3 3 6 4 5 4 1 7 6 6 8 4 4 3 2 2 4 5 4 1 1 10 6 4 1 6 15 16 17 17 18 14
14 5 6 16 8 13 11 8 9 7 3 4 3 3 3 2 1 5 4 2 4 4 2 7 3 6 7 2 4 5 8 11 11 7 9 14 16 6 9 16 18 16 16 17 14
13 6 10 9 11 8 16 11 12 10 5 6 2 5 6 4 3 3 2 3 2 4 3 4 6 5 6 2 3 5 8 13 15 18 13 19 18 15 12 16 25 19 17 18 14
10 6 6 7 20 10 10 10 15 13 9 7 5 11 8 8 7 8 7 4 4 4 5 2 5 3 4 2 7 9 13 14 17 19 19 20 24 19 17 11 16 20 17 16 12
17 13 11 10 15 14 12 12 9 10 11 8 12 7 6 12 10 1 3 3 3 5 10 6 6 5 7 0 5 10 20 20 15 13 12 15 18 2 5 9 14 18 18 15 11
Wind_Direction
271 280 262 246 239 238 242 255 247 242 213 225 233 253 265 268 260 223 227 195 164 146 129 128 130 118 95 100 91 100 241 245 248 231 230 181 256 268 275 268 262 250 273 283 292
252 258 256 252 249 245 239 251 250 229 217 222 237 253 268 273 259 226 199 186 158 140 139 145 136 116 129 126 124 240 249 258 270 242 243 278 274 298 274 268 276 276 278 293 290
244 251 253 240 233 234 237 247 257 223 220 223 239 254 267 281 270 222 202 189 168 150 146 133 108 108 136 173 173 168 260 219 246 246 279 289 284 258 285 280 324 307 301 297 295
242 245 243 231 237 236 236 238 253 227 217 223 238 253 262 249 219 198 195 192 180 168 152 133 115 120 194 216 174 246 251 249 287 249 274 277 290 283 268 283 321 320 301 303 297
247 235 240 242 225 233 241 239 244 230 222 225 234 250 256 244 251 201 200 194 190 181 172 169 152 137 246 203 209 242 275 248 263 269 263 270 275 269 278 328 330 334 337 330 323
243 241 238 228 242 244 236 238 238 231 223 232 236 236 242 240 230 219 185 186 184 186 192 194 177 205 229 220 230 270 267 278 276 266 239 257 234 286 146 352 33 45 35 22 11
245 236 224 236 221 230 241 235 227 229 222 232 243 240 235 234 222 204 183 182 186 189 204 216 237 203 161 201 240 285 292 294 213 109 255 229 211 203 99 17 65 51 45 42 47
241 236 223 224 223 255 256 257 232 214 222 231 236 243 246 238 224 203 193 194 193 198 204 203 185 175 212 144 203 262 260 243 143 335 117 272 230 154 109 27 77 66 55 50 50
232 227 224 220 210 246 241 242 228 215 220 226 235 216 249 223 215 210 199 202 195 190 179 173 166 160 173 229 248 201 273 259 251 87 296 244 287 162 212 343 129 95 70 64 63
222 218 218 209 206 238 225 219 213 222 221 222 222 214 242 215 208 210 207 203 181 176 144 175 163 224 203 209 266 227 241 243 266 123 280 271 262 281 282 198 152 126 93 77 70
215 210 214 207 202 216 214 188 191 231 211 199 201 214 292 194 187 193 197 183 163 179 212 157 229 232 245 230 291 242 263 269 268 11 289 262 294 324 287 159 145 133 116 95 82
209 209 205 205 202 199 195 195 198 200 224 225 236 227 215 177 170 184 179 182 189 209 154 198 242 276 243 191 189 211 260 270 273 188 285 288 312 71 143 135 139 141 129 113 103
207 202 198 202 198 200 200 199 199 229 263 219 224 228 218 206 221 193 180 180 191 191 202 235 76 125 168 165 189 206 239 266 285 254 237 277 201 165 159 147 141 145 141 126 118
201 201 197 196 199 199 209 199 211 203 261 204 197 211 208 202 234 198 185 174 167 216 187 243 130 211 224 238 232 260 230 234 234 255 270 273 265 193 179 175 181 166 159 145 131
200 198 198 196 194 197 205 193 197 193 261 122 154 176 167 185 137 184 187 197 192 170 192 148 175 186 204 220 191 67 111 176 257 253 282 189 238 135 183 197 188 183 169 159 145
204 194 195 194 194 190 186 172 164 209 245 152 137 160 155 163 142 126 168 161 131 149 239 264 245 213 187 107 162 132 126 152 204 244 240 121 252 176 188 205 188 183 180 171 164
199 198 195 194 204 179 170 153 175 228 88 172 178 170 175 160 149 174 172 186 191 190 225 213 228 179 197 194 133 180 220 249 214 209 308 114 226 313 189 199 195 186 183 178 175
193 195 196 195 189 175 160 170 206 213 197 114 130 141 176 164 176 153 158 187 212 210 148 203 198 182 170 224 194 193 237 267 281 268 74 150 240 106 153 216 212 196 184 179 181
189 190 196 191 191 177 169 201 209 196 154 158 118 148 180 187 205 172 203 212 203 199 214 181 154 119 63 110 242 144 215 27 161 130 258 203 251 218 187 213 200 188 179 185 188
184 188 198 189 186 177 194 208 226 189 146 174 191 203 184 183 183 194 184 187 205 204 230 183 132 63 108 126 74 257 126 190 210 252 248 197 259 236 191 180 172 176 185 184 188
176 168 199 187 181 180 205 205 206 222 195 184 203 157 194 178 203 190 183 167 201 168 201 175 239 120 174 205 183 154 200 212 300 267 276 292 250 198 196 175 173 178 181 182 180
168 178 175 177 179 194 206 206 190 187 199 224 146 140 181 172 176 207 207 244 160 151 175 174 193 186 185 56 351 295 245 215 241 183 237 309 275 181 215 184 179 172 173 176 172
162 117 174 172 200 189 150 198 221 184 199 190 189 207 182 174 175 200 187 110 163 165 152 173 201 180 173 166 179 230 192 216 212 295 226 252 257 73 197 191 191 184 176 175 175
161 143 154 200 221 184 172 193 205 205 205 177 164 136 150 155 256 173 189 123 156 175 177 166 180 246 263 24 115 191 200 210 218 242 249 236 270 229 203 197 197 194 185 183 180
183 179 169 186 199 187 186 167 192 204 215 192 161 210 183 175 153 194 136 130 102 151 131 206 231 215 261 241 221 249 218 204 210 234 242 269 275 269 241 220 210 195 183 184 180
180 157 138 154 173 168 179 193 193 194 171 201 212 202 188 196 197 197 170 193 203 158 177 177 214 185 253 235 247 254 247 242 231 247 256 266 273 280 260 262 233 205 181 179 178
206 170 158 153 172 181 196 191 186 170 221 216 208 208 213 230 240 235 192 134 163 180 183 179 178 184 255 227 282 262 238 233 233 229 244 251 267 260 212 213 211 196 177 174 177
Height
1537 1539 1543 1545 1545 1544 1545 1547 1546 1547 1548 1549 1549 1549 1549 1549 1548 1549 1550 1551 1550 1550 1550 1551 1551 1551 1552 1553 1553 1553 1551 1550 1550 1552 1547 1550 1549 1550 1549 1548 1547 1547 1546 1545 1544
1536 1537 1540 1541 1542 1542 1544 1545 1546 1545 1547 1548 1548 1548 1548 1548 1547 1547 1549 1549 1550 1550 1551 1551 1552 1551 1552 1553 1554 1553 1552 1549 1549 1548 1548 1550 1552 1551 1549 1544 1544 1544 1544 1542 1541
1533 1535 1537 1539 1540 1541 1542 1542 1544 1544 1546 1546 1547 1548 1547 1547 1548 1546 1546 1548 1549 1550 1550 1551 1551 1552 1552 1552 1553 1553 1549 1550 1550 1550 1551 1550 1550 1550 1547 1542 1543 1543 1541 1540 1538
1530 1532 1534 1537 1537 1538 1540 1540 1542 1543 1544 1545 1546 1547 1547 1548 1548 1544 1545 1547 1548 1549 1550 1550 1550 1551 1551 1550 1552 1551 1549 1551 1551 1550 1550 1549 1548 1547 1546 1543 1544 1540 1538 1536 1535
1528 1529 1530 1532 1535 1537 1537 1539 1540 1542 1543 1544 1545 1545 1546 1547 1545 1544 1544 1546 1547 1548 1549 1549 1550 1550 1549 1551 1552 1550 1549 1550 1550 1549 1548 1547 1546 1546 1544 1544 1541 1538 1536 1533 1532
1524 1525 1527 1529 1531 1534 1536 1536 1538 1540 1542 1543 1544 1544 1545 1546 1542 1543 1543 1545 1546 1547 1548 1549 1549 1549 1549 1550 1551 1550 1550 1548 1547 1546 1546 1546 1546 1546 1544 1543 1542 1539 1536 1533 1529
1520 1522 1525 1526 1530 1532 1533 1535 1536 1539 1541 1542 1543 1543 1543 1542 1541 1542 1543 1545 1546 1546 1547 1547 1548 1549 1548 1549 1550 1550 1548 1544 1545 1544 1544 1545 1543 1542 1544 1544 1542 1540 1537 1534 1529
1516 1518 1521 1525 1526 1528 1530 1532 1534 1537 1539 1541 1542 1542 1540 1538 1540 1541 1542 1544 1544 1545 1545 1546 1547 1548 1548 1549 1549 1548 1548 1541 1542 1543 1544 1544 1534 1539 1542 1543 1543 1541 1539 1536 1532
1513 1515 1519 1522 1522 1528 1530 1532 1533 1536 1538 1540 1541 1542 1538 1535 1537 1539 1541 1542 1543 1544 1545 1545 1546 1548 1548 1544 1544 1545 1541 1542 1540 1543 1542 1541 1534 1537 1542 1542 1543 1543 1542 1539 1535
1510 1513 1516 1518 1521 1526 1528 1531 1532 1536 1537 1539 1539 1543 1535 1532 1533 1535 1538 1540 1541 1543 1545 1546 1546 1544 1545 1542 1541 1541 1543 1544 1542 1541 1541 1539 1536 1535 1538 1539 1541 1543 1544 1542 1537
1506 1509 1513 1515 1518 1522 1526 1530 1537 1539 1534 1530 1529 1530 1527 1529 1531 1533 1535 1538 1540 1542 1541 1545 1543 1539 1534 1537 1540 1543 1544 1543 1538 1543 1544 1538 1537 1535 1538 1537 1539 1543 1543 1543 1539
1501 1505 1509 1513 1515 1519 1524 1527 1528 1530 1529 1525 1525 1527 1528 1528 1530 1532 1534 1537 1538 1536 1541 1544 1539 1534 1540 1542 1543 1544 1544 1541 1540 1543 1544 1537 1535 1538 1538 1538 1539 1542 1543 1543 1543
1498 1502 1506 1511 1514 1518 1519 1522 1526 1528 1526 1520 1519 1522 1525 1527 1528 1529 1531 1533 1533 1536 1536 1535 1536 1539 1540 1542 1543 1539 1540 1539 1543 1542 1542 1541 1534 1536 1539 1540 1541 1543 1544 1544 1544
1495 1499 1505 1510 1517 1515 1516 1522 1525 1526 1522 1514 1515 1516 1519 1523 1526 1526 1529 1531 1532 1531 1536 1535 1538 1539 1540 1539 1541 1538 1535 1542 1545 1541 1533 1539 1524 1532 1533 1537 1540 1541 1542 1543 1543
1492 1496 1501 1507 1508 1509 1513 1518 1523 1526 1528 1512 1513 1512 1513 1519 1521 1523 1525 1527 1527 1531 1535 1531 1536 1538 1537 1534 1538 1536 1538 1542 1546 1540 1539 1535 1532 1516 1528 1531 1533 1537 1539 1542 1542
1488 1492 1498 1501 1505 1508 1511 1515 1522 1525 1522 1510 1509 1510 1512 1517 1520 1522 1524 1527 1529 1530 1533 1529 1535 1534 1532 1536 1538 1539 1541 1545 1546 1541 1537 1528 1532 1516 1523 1520 1526 1533 1536 1538 1540
1485 1490 1494 1500 1503 1504 1507 1513 1520 1518 1507 1509 1509 1509 1509 1514 1518 1518 1519 1523 1524 1532 1529 1529 1530 1532 1533 1533 1537 1536 1537 1532 1535 1537 1524 1538 1536 1507 1514 1520 1521 1528 1532 1535 1538
1482 1487 1490 1496 1500 1502 1505 1510 1514 1500 1503 1505 1507 1508 1508 1512 1515 1517 1518 1519 1523 1522 1524 1527 1530 1528 1530 1526 1525 1532 1532 1527 1536 1528 1526 1540 1524 1509 1519 1523 1526 1526 1530 1534 1536
1479 1483 1488 1493 1496 1501 1504 1507 1495 1497 1497 1501 1506 1507 1509 1512 1512 1514 1515 1513 1512 1517 1517 1520 1524 1530 1530 1528 1529 1534 1537 1535 1534 1546 1537 1518 1516 1514 1519 1522 1525 1528 1530 1532 1534
1473 1481 1484 1490 1495 1499 1500 1493 1494 1496 1498 1499 1498 1501 1503 1507 1511 1511 1511 1507 1510 1512 1513 1513 1521 1529 1532 1531 1532 1531 1535 1535 1531 1534 1532 1518 1520 1503 1513 1516 1521 1525 1527 1529 1532
1473 1479 1481 1486 1492 1496 1491 1490 1494 1495 1498 1497 1496 1501 1500 1505 1504 1507 1505 1508 1508 1513 1514 1513 1512 1531 1531 1526 1521 1534 1531 1534 1530 1529 1522 1521 1507 1502 1501 1507 1512 1518 1523 1526 1529
1468 1474 1477 1484 1491 1490 1489 1491 1492 1494 1495 1496 1496 1497 1497 1502 1503 1504 1501 1504 1506 1508 1511 1511 1510 1517 1519 1527 1528 1526 1521 1522 1522 1527 1530 1528 1511 1505 1504 1505 1507 1513 1519 1523 1525
1463 1470 1476 1477 1478 1482 1488 1488 1491 1493 1493 1494 1494 1494 1498 1498 1501 1500 1502 1505 1504 1506 1507 1511 1512 1515 1522 1528 1529 1525 1524 1523 1526 1524 1518 1522 1501 1507 1509 1509 1511 1512 1514 1518 1521
1460 1467 1475 1476 1475 1475 1481 1485 1489 1489 1491 1491 1492 1493 1495 1496 1499 1499 1500 1504 1505 1507 1509 1510 1511 1504 1505 1507 1510 1519 1521 1522 1518 1518 1511 1508 1497 1500 1507 1505 1506 1509 1513 1517 1519
1450 1452 1455 1465 1471 1473 1476 1480 1483 1486 1489 1489 1492 1491 1491 1496 1498 1496 1499 1503 1506 1507 1509 1509 1508 1509 1508 1512 1514 1510 1512 1517 1517 1507 1510 1494 1494 1492 1498 1502 1501 1505 1509 1513 1516
1443 1445 1451 1458 1465 1471 1473 1475 1476 1481 1483 1485 1488 1486 1488 1489 1489 1493 1496 1499 1497 1508 1507 1511 1507 1512 1510 1514 1515 1515 1511 1507 1508 1502 1499 1499 1496 1491 1495 1499 1499 1504 1508 1511 1514
1438 1440 1444 1455 1460 1465 1463 1467 1472 1476 1479 1480 1482 1485 1489 1487 1488 1491 1494 1495 1496 1498 1503 1508 1508 1510 1506 1516 1516 1511 1497 1494 1493 1495 1494 1495 1484 1489 1492 1495 1497 1501 1505 1509 1512